Temperature
18 18 17 17 17 17 17 17 17 16 16 16 16 16 16 16 16 16 15 15 15 15 15 15 15 15 15 15 15 14 14 14 14 14 14 14 14 14 14 14 14 14 13
19 18 17 17 17 17 17 17 17 16 16 16 16 16 16 16 16 16 16 15 15 15 15 15 15 15 15 14 14 14 14 14 14 14 14 15 14 14 14 14 13 13 13
19 18 18 17 17 17 17 17 17 16 16 16 16 16 16 16 16 16 15 15 15 15 15 15 15 15 14 14 14 14 14 14 14 14 14 15 15 14 14 13 13 13 13
18 18 17 17 17 17 17 17 17 17 16 16 16 16 16 16 15 15 15 15 15 15 15 15 15 14 14 14 14 14 14 14 14 13 14 14 14 14 14 13 13 13 13
18 18 17 17 17 17 17 17 17 17 16 16 16 16 16 15 15 15 15 15 15 15 15 15 14 14 14 14 14 14 14 13 13 13 13 13 13 14 14 13 13 13 13
18 18 17 17 17 17 17 16 17 16 16 16 16 15 15 15 15 15 15 15 15 15 15 14 14 14 14 14 14 14 13 13 13 13 13 13 13 13 13 13 13 13 12
18 18 17 17 17 17 17 16 16 16 16 16 16 15 15 15 15 15 15 15 15 15 15 14 14 14 14 14 13 13 13 13 13 13 13 13 13 13 13 13 13 12 12
18 18 17 17 17 17 16 16 16 16 16 16 16 15 15 15 15 15 15 14 14 14 14 14 14 14 14 13 13 13 13 13 13 13 13 12 12 12 12 12 12 12 12
18 17 17 17 16 16 16 16 16 16 16 16 16 15 15 15 15 15 15 14 14 14 14 14 14 14 13 13 13 13 13 13 13 13 12 12 12 12 12 12 11 12 12
18 17 17 16 16 16 16 16 16 16 16 16 15 15 15 15 15 15 14 14 14 14 14 14 14 13 13 13 13 13 13 12 13 13 12 12 12 12 11 11 11 11 11
18 17 16 16 16 16 16 16 16 15 15 15 15 15 15 15 15 14 14 14 14 14 14 14 13 13 13 13 13 13 13 12 12 12 12 12 11 11 11 11 11 11 11
17 17 16 16 16 16 16 16 15 15 15 15 15 15 15 15 14 14 14 14 14 13 13 13 13 13 13 13 13 12 12 12 12 12 12 11 11 11 11 11 11 10 10
17 16 16 16 16 15 15 16 15 15 15 15 15 15 14 14 14 14 14 13 13 13 13 13 13 13 13 12 12 12 12 12 12 12 11 11 11 11 11 11 10 10 10
17 16 16 15 15 15 15 15 15 15 15 15 15 14 14 14 14 13 13 13 13 13 13 13 13 13 12 12 12 12 12 12 11 11 11 11 11 11 10 10 10 10 10
16 16 15 15 15 15 15 15 15 15 14 14 14 14 14 14 14 13 13 13 13 13 12 12 12 12 12 12 12 12 11 11 11 11 11 11 11 11 11 10 10 10 10
16 16 16 15 15 15 15 15 15 14 14 14 14 14 14 14 13 13 13 13 13 13 12 12 12 12 12 12 12 12 11 11 11 11 11 11 10 10 10 10 10 10 9
16 16 16 15 15 15 15 14 14 14 14 14 14 14 13 13 13 13 13 13 13 13 12 12 12 12 12 12 11 11 11 11 11 10 10 10 10 10 10 10 10 10 10
16 16 16 15 15 15 15 14 14 14 14 14 13 13 13 13 13 13 13 13 12 12 12 12 12 12 12 11 11 11 11 10 10 10 10 10 10 10 10 9 9 9 9
15 15 15 15 15 15 14 14 14 14 13 13 13 13 13 13 13 13 13 12 12 12 12 12 11 11 11 11 11 11 10 10 10 10 10 10 10 10 10 9 9 9 9
15 15 15 15 14 14 14 14 13 13 13 13 13 13 12 12 12 12 12 12 12 12 12 11 11 11 11 11 11 11 10 10 10 10 10 10 10 10 10 9 9 9 9
14 14 14 14 14 14 14 13 13 13 13 13 12 12 12 12 12 12 12 12 12 12 11 11 11 11 11 11 11 11 10 10 10 10 10 10 10 9 9 9 9 9 8
14 14 14 14 14 14 13 13 13 13 12 12 12 12 12 12 12 11 11 11 11 11 11 11 11 11 11 11 11 10 10 10 9 9 9 9 9 9 9 9 9 8 8
13 13 13 13 13 13 13 13 13 12 12 12 12 12 11 11 11 11 11 11 11 11 11 10 10 10 10 10 10 10 10 10 9 9 9 9 9 9 9 9 8 8 8
13 13 13 13 13 13 13 12 12 12 11 11 11 11 11 11 11 10 10 10 10 10 10 10 10 10 10 10 10 10 9 9 9 9 9 9 8 8 8 8 8 8 7
13 13 12 12 12 12 12 12 11 11 11 11 11 10 10 10 10 10 10 10 10 10 10 10 10 10 10 10 10 10 9 9 9 9 8 8 8 8 8 8 8 7 7
12 12 12 12 12 11 11 11 11 11 11 10 10 10 10 10 10 10 10 10 10 10 10 10 9 9 9 9 9 9 9 9 9 8 8 8 8 7 7 7 7 7 7
Wind_Speed
5 5 4 4 4 4 4 4 5 4 4 3 2 2 2 2 2 2 2 2 2 2 3 2 3 2 2 2 3 2 3 2 2 2 2 3 3 4 3 4 4 5 6
6 6 5 5 4 4 4 4 4 4 4 2 2 2 2 1 2 2 2 2 2 2 2 2 2 2 2 2 2 2 1 1 1 1 1 1 2 2 3 3 3 4 4
6 7 6 5 5 4 4 4 4 4 4 4 3 3 3 2 2 2 2 2 2 2 2 2 2 3 2 2 2 2 2 1 0 1 2 2 0 1 2 3 2 3 3
6 6 6 6 5 4 4 4 5 4 4 4 4 4 3 3 2 2 2 3 3 3 3 3 2 2 2 2 2 2 1 1 1 0 2 2 1 1 1 1 2 3 2
7 6 6 6 5 4 4 4 4 4 4 4 4 3 2 2 2 2 3 3 3 2 2 2 2 2 2 2 1 1 1 1 1 1 0 1 1 3 2 1 0 1 1
7 6 5 5 5 5 4 4 4 4 4 4 4 3 3 3 3 3 3 2 2 2 2 2 2 2 2 2 2 1 1 1 1 1 1 1 1 1 1 2 1 0 1
7 7 6 6 5 5 5 6 5 5 5 4 4 4 4 3 3 3 3 2 2 2 2 2 2 2 2 2 2 1 1 1 1 1 1 1 1 1 2 2 1 1 1
6 7 7 6 6 5 5 6 6 5 5 5 4 4 4 3 2 2 2 2 2 2 2 2 2 2 2 2 2 2 1 1 1 1 1 1 1 1 1 1 2 2 2
5 6 6 6 6 6 5 6 6 6 6 5 5 4 4 3 3 3 3 2 2 2 3 3 3 3 3 2 2 2 2 1 1 1 1 1 1 1 1 1 2 3 3
5 5 6 6 6 6 5 6 6 6 6 5 5 4 4 4 3 3 3 3 3 3 3 3 3 3 3 3 3 2 1 2 1 1 1 1 1 1 1 1 2 3 3
4 4 4 5 5 5 5 5 6 6 5 5 5 5 5 4 4 4 4 3 3 4 4 4 3 3 3 3 3 3 2 2 2 2 2 2 1 1 1 1 2 2 2
4 4 4 4 4 5 5 5 5 6 5 5 5 5 4 5 5 4 4 4 4 4 4 4 4 4 3 3 3 3 3 3 2 2 2 2 2 2 2 2 2 2 2
3 4 4 4 4 4 5 5 5 5 5 5 5 5 5 5 5 5 4 4 4 4 4 4 4 4 4 3 3 3 3 3 3 3 3 3 3 3 2 3 3 2 2
3 3 4 4 4 4 5 5 5 5 5 5 5 5 5 5 5 4 4 4 4 4 4 4 4 4 4 4 4 4 3 3 3 3 3 3 3 4 3 3 3 3 3
3 3 3 4 4 5 5 5 5 5 5 5 5 5 4 4 5 5 5 5 5 5 4 4 4 4 4 4 4 4 4 4 3 4 4 3 2 2 2 3 3 3 3
3 3 4 4 4 5 5 5 5 5 5 5 5 4 4 4 4 5 5 5 5 5 5 5 5 5 4 2 3 5 5 5 5 4 4 4 5 4 5 4 4 4 5
4 4 4 4 4 4 5 5 5 5 5 5 5 5 5 5 5 5 5 5 5 5 5 6 6 6 5 5 6 6 6 6 6 6 5 4 4 5 6 6 7 7 6
3 4 4 4 4 4 4 4 5 5 5 5 5 5 6 6 5 5 5 6 5 5 6 6 7 6 6 6 7 7 8 7 7 6 6 6 6 6 5 6 6 6 6
3 3 4 4 4 4 4 5 5 5 5 5 5 5 6 6 6 6 6 6 6 6 6 7 7 7 7 8 8 8 7 7 8 8 8 8 8 4 5 7 7 6 5
3 3 3 3 4 4 4 5 5 5 6 6 6 6 6 6 6 7 7 6 6 6 6 7 7 8 8 7 9 10 7 8 7 7 7 7 7 5 6 8 7 7 6
3 3 3 3 4 4 5 6 6 7 6 6 6 6 7 7 6 6 6 6 6 6 7 7 7 8 8 7 9 10 8 7 7 7 6 6 8 8 9 9 8 6 6
3 3 3 4 4 4 5 6 7 6 6 5 6 6 7 6 6 6 6 6 6 6 6 6 6 6 6 6 7 10 10 8 8 7 6 5 7 9 9 8 6 4 5
4 4 4 4 4 5 6 7 6 5 5 6 6 6 6 6 6 6 6 6 6 5 6 5 6 5 5 5 7 9 10 9 7 6 4 4 6 7 7 8 7 6 6
4 4 4 5 5 5 6 7 6 5 6 6 6 6 6 6 6 5 5 6 6 6 6 6 6 5 4 4 4 5 6 7 7 6 4 5 6 6 6 6 7 7 6
5 5 5 5 6 5 6 6 5 5 6 6 6 6 6 6 6 6 5 6 6 6 6 6 5 5 6 5 4 5 5 5 6 5 5 5 5 5 6 6 6 6 6
5 5 5 6 6 6 6 6 6 6 6 6 6 5 5 5 5 5 5 4 6 4 5 5 6 5 6 5 6 7 7 7 7 6 6 6 6 6 6 6 6 6 6
Wind_Direction
173 169 166 163 161 162 160 152 156 156 159 157 161 161 154 150 129 120 120 137 145 135 118 126 115 120 118 115 116 107 113 117 115 100 85 80 66 58 58 51 52 56 53
178 171 176 171 176 172 170 164 164 166 169 172 179 171 161 154 125 123 129 152 157 146 146 148 137 139 134 136 121 118 114 111 214 291 277 179 125 68 59 63 52 49 58
193 180 181 179 182 184 182 177 176 173 170 170 168 159 153 158 156 141 128 131 139 140 153 149 149 150 154 147 157 158 170 186 221 313 302 298 338 78 86 57 56 52 46
198 188 186 186 186 185 184 183 181 178 173 171 180 182 184 172 162 143 136 137 134 138 151 157 157 157 166 166 181 182 214 233 242 296 319 319 336 263 177 115 61 52 44
195 191 192 191 186 180 182 187 178 177 175 175 178 195 181 159 146 145 150 149 136 138 152 161 159 166 177 175 157 176 241 248 292 304 310 333 288 274 275 238 143 83 61
193 194 189 186 185 177 179 183 182 175 170 174 179 190 179 177 168 165 164 167 153 149 143 159 165 167 165 168 176 188 231 275 287 279 271 258 258 276 286 260 240 304 51
191 192 190 191 189 185 184 186 187 183 178 178 185 190 190 190 191 185 178 186 170 167 161 166 174 166 168 171 175 176 212 231 244 267 298 289 288 276 280 270 281 287 265
190 194 196 197 195 192 192 193 191 187 183 186 185 190 192 194 196 196 191 192 185 169 159 166 172 173 180 182 173 198 200 223 219 227 255 256 273 275 266 276 277 271 256
192 196 197 199 198 196 196 198 192 190 189 192 191 191 194 194 193 194 192 193 189 172 166 173 179 174 181 187 181 198 198 212 225 222 222 233 216 222 247 259 265 278 273
196 196 198 200 199 197 197 197 194 193 190 193 194 191 196 194 196 195 193 190 186 177 180 186 186 180 182 190 190 191 194 189 166 225 240 217 219 205 229 252 269 281 282
200 198 200 198 193 191 192 195 194 192 191 193 192 190 192 191 192 196 194 194 193 189 189 189 191 184 184 187 182 192 186 200 185 189 204 207 214 215 215 229 250 266 266
200 195 191 188 189 191 192 192 194 190 189 190 190 194 190 192 198 198 199 198 193 191 197 189 191 191 190 187 190 194 201 214 211 201 202 206 197 217 230 227 236 244 253
199 185 184 191 192 193 193 191 192 192 186 185 190 194 197 199 203 204 200 202 198 196 197 194 197 194 195 198 206 207 212 217 221 221 223 226 219 219 217 227 234 237 240
192 185 189 197 199 197 194 192 190 190 187 183 191 201 204 204 206 208 204 206 204 202 203 203 204 203 204 209 215 218 219 219 222 225 231 237 237 233 229 226 232 235 236
193 192 196 199 198 198 197 194 193 191 190 189 195 204 204 204 207 205 205 206 207 212 210 213 212 213 217 219 222 220 225 223 225 227 227 228 242 293 262 250 240 233 235
207 203 201 200 204 203 202 198 198 197 194 196 200 201 201 200 205 206 205 206 206 214 215 220 221 220 223 184 233 248 230 231 229 231 231 217 208 206 217 236 251 261 248
228 219 212 207 211 211 207 204 203 196 198 203 204 201 201 200 206 203 204 209 210 212 217 223 225 227 213 183 209 238 245 240 239 238 237 237 228 218 226 213 215 229 237
249 238 229 216 215 211 205 204 202 201 205 211 212 206 205 205 206 207 210 215 219 215 221 226 228 233 221 196 212 225 241 242 240 240 239 238 238 226 235 237 236 239 233
267 251 238 223 212 208 203 200 203 206 211 219 222 214 211 210 212 216 219 222 223 224 226 229 232 233 227 206 213 221 238 240 239 238 238 240 242 200 229 243 244 245 242
277 259 239 227 221 214 205 205 212 216 223 227 232 226 219 215 218 225 227 224 225 230 232 234 237 238 240 210 209 221 235 239 240 239 235 231 243 213 214 239 245 249 250
279 262 242 232 228 219 210 216 222 227 232 232 236 232 224 223 224 230 231 229 230 233 236 238 239 241 242 220 209 217 233 238 241 239 236 226 204 216 221 244 251 254 263
275 260 246 242 235 223 219 228 235 237 234 229 232 231 227 225 225 227 234 235 231 232 237 239 239 240 238 235 218 216 232 252 244 244 244 231 193 213 222 233 248 253 254
275 261 251 248 241 230 227 233 239 239 234 229 233 234 230 224 227 227 229 231 230 232 238 239 241 239 238 230 223 222 227 239 245 249 257 243 207 214 224 227 231 230 236
276 265 254 251 249 240 237 239 238 235 233 232 235 233 227 226 228 229 230 228 229 230 234 237 241 242 241 243 236 232 227 223 236 246 233 216 210 222 234 224 222 230 235
275 268 261 260 258 249 242 242 234 227 233 236 238 235 228 229 230 230 234 233 235 238 239 240 243 242 245 249 252 245 242 232 223 223 226 226 225 227 229 230 230 231 231
272 269 266 261 258 250 242 237 229 225 231 236 238 234 231 227 230 235 239 232 237 236 240 253 255 254 258 264 245 242 242 234 217 215 225 229 230 232 234 235 234 233 235
Height
1548 1549 1550 1551 1552 1552 1553 1554 1555 1556 1556 1557 1558 1558 1558 1559 1559 1559 1559 1560 1560 1561 1561 1561 1562 1562 1563 1563 1563 1563 1563 1563 1563 1563 1562 1562 1561 1561 1560 1560 1560 1559 1558
1547 1548 1549 1550 1551 1552 1553 1554 1555 1556 1556 1556 1557 1558 1558 1558 1559 1559 1559 1559 1560 1560 1561 1561 1561 1562 1562 1562 1563 1562 1563 1563 1563 1563 1563 1563 1563 1561 1561 1560 1560 1559 1558
1545 1546 1548 1549 1550 1551 1552 1553 1554 1555 1555 1556 1556 1557 1557 1558 1558 1558 1559 1559 1559 1560 1560 1561 1561 1561 1562 1562 1562 1562 1562 1563 1563 1563 1563 1563 1562 1562 1562 1561 1560 1559 1558
1543 1545 1546 1548 1549 1550 1551 1552 1553 1554 1555 1555 1555 1556 1557 1557 1558 1558 1558 1558 1559 1559 1559 1560 1560 1561 1561 1561 1562 1562 1562 1562 1562 1562 1562 1562 1562 1562 1562 1562 1560 1559 1559
1542 1543 1545 1547 1548 1549 1550 1551 1552 1553 1554 1554 1555 1555 1556 1557 1557 1557 1557 1558 1558 1558 1559 1559 1559 1560 1560 1560 1561 1561 1561 1561 1561 1561 1561 1561 1561 1561 1561 1561 1561 1560 1559
1540 1542 1543 1545 1546 1547 1548 1549 1550 1552 1552 1553 1554 1554 1555 1556 1556 1556 1557 1557 1557 1558 1558 1558 1559 1559 1559 1559 1560 1560 1560 1560 1560 1560 1560 1560 1560 1560 1560 1560 1559 1559 1558
1538 1540 1541 1543 1544 1545 1546 1548 1549 1550 1551 1552 1553 1554 1554 1555 1555 1555 1556 1556 1557 1557 1557 1557 1558 1558 1558 1558 1558 1558 1558 1559 1558 1559 1559 1559 1559 1559 1559 1559 1558 1558 1557
1536 1538 1540 1541 1542 1543 1545 1546 1547 1548 1550 1550 1551 1552 1553 1553 1554 1554 1555 1555 1556 1556 1556 1556 1556 1556 1557 1557 1557 1557 1557 1557 1557 1557 1557 1557 1557 1557 1557 1557 1557 1557 1556
1535 1536 1538 1539 1541 1542 1543 1544 1546 1547 1548 1549 1550 1551 1551 1552 1552 1553 1553 1554 1554 1554 1554 1555 1555 1555 1555 1555 1555 1556 1556 1556 1556 1556 1556 1555 1555 1555 1555 1555 1555 1556 1555
1534 1535 1536 1537 1538 1540 1541 1542 1544 1545 1546 1547 1548 1549 1550 1550 1550 1551 1552 1552 1552 1552 1553 1553 1554 1554 1554 1554 1554 1554 1554 1554 1554 1554 1554 1554 1554 1554 1553 1553 1553 1554 1554
1532 1533 1535 1536 1537 1537 1539 1540 1542 1543 1544 1545 1546 1547 1548 1548 1549 1549 1550 1550 1550 1551 1551 1552 1552 1552 1552 1552 1552 1552 1552 1552 1552 1552 1552 1552 1552 1552 1552 1551 1551 1551 1551
1531 1532 1533 1534 1535 1535 1536 1538 1540 1541 1542 1543 1544 1545 1545 1546 1547 1547 1548 1548 1548 1549 1549 1550 1550 1550 1551 1551 1551 1551 1550 1551 1551 1551 1551 1550 1550 1550 1550 1549 1549 1549 1549
1529 1530 1531 1532 1533 1533 1534 1535 1537 1538 1540 1541 1542 1542 1543 1544 1544 1545 1545 1546 1546 1547 1547 1548 1548 1548 1549 1549 1549 1549 1549 1549 1549 1549 1549 1549 1549 1548 1548 1547 1547 1547 1547
1527 1528 1529 1530 1531 1531 1532 1533 1534 1535 1537 1538 1539 1540 1540 1541 1542 1542 1543 1543 1544 1545 1545 1546 1546 1546 1546 1546 1547 1547 1547 1547 1547 1547 1546 1546 1546 1546 1546 1545 1545 1545 1545
1526 1527 1527 1528 1529 1529 1530 1531 1532 1533 1534 1535 1536 1537 1538 1538 1539 1539 1540 1540 1541 1542 1543 1543 1544 1544 1544 1544 1544 1545 1544 1545 1544 1544 1544 1544 1543 1543 1543 1543 1543 1543 1542
1524 1525 1525 1526 1526 1527 1528 1529 1529 1530 1531 1532 1533 1534 1535 1535 1536 1536 1537 1537 1538 1539 1539 1540 1541 1541 1541 1541 1541 1542 1542 1542 1542 1542 1542 1541 1541 1540 1540 1540 1540 1540 1540
1522 1522 1523 1523 1524 1525 1525 1526 1527 1528 1529 1530 1530 1531 1532 1532 1533 1533 1534 1534 1535 1536 1536 1537 1537 1538 1538 1538 1538 1538 1539 1539 1539 1539 1539 1538 1538 1537 1538 1537 1537 1536 1536
1520 1520 1521 1521 1521 1522 1523 1524 1524 1525 1526 1527 1528 1528 1529 1529 1530 1530 1531 1531 1532 1532 1532 1533 1534 1534 1534 1534 1535 1535 1535 1535 1535 1535 1535 1535 1535 1534 1534 1534 1534 1534 1533
1518 1518 1518 1519 1519 1520 1520 1521 1522 1522 1523 1524 1524 1525 1525 1526 1526 1527 1527 1528 1528 1528 1529 1529 1530 1530 1530 1530 1531 1531 1531 1531 1531 1531 1531 1531 1531 1530 1530 1530 1531 1530 1530
1515 1516 1516 1516 1516 1517 1517 1518 1518 1519 1519 1520 1521 1521 1522 1522 1522 1523 1524 1524 1524 1525 1525 1525 1525 1525 1526 1526 1526 1526 1527 1527 1527 1526 1526 1526 1526 1526 1526 1526 1526 1526 1526
1512 1512 1513 1513 1513 1514 1514 1514 1514 1515 1516 1516 1517 1517 1518 1518 1518 1519 1520 1520 1520 1520 1521 1521 1521 1521 1521 1521 1521 1521 1522 1522 1522 1522 1522 1521 1521 1521 1521 1522 1522 1522 1522
1510 1509 1509 1509 1510 1510 1510 1510 1510 1511 1512 1512 1512 1513 1513 1514 1514 1515 1515 1516 1516 1516 1516 1516 1516 1516 1516 1516 1516 1516 1517 1517 1517 1517 1517 1517 1516 1516 1516 1517 1516 1516 1517
1507 1506 1506 1506 1506 1506 1506 1506 1506 1507 1507 1507 1507 1508 1509 1509 1509 1510 1510 1510 1511 1511 1511 1511 1511 1511 1511 1511 1511 1511 1511 1511 1512 1512 1512 1511 1511 1511 1511 1512 1512 1512 1512
1504 1503 1502 1502 1501 1501 1501 1501 1502 1502 1502 1502 1503 1503 1504 1504 1504 1505 1505 1505 1505 1505 1506 1506 1506 1505 1506 1506 1506 1506 1506 1506 1506 1506 1506 1506 1506 1506 1506 1506 1506 1507 1507
1500 1500 1499 1497 1497 1496 1496 1497 1497 1497 1498 1498 1498 1499 1499 1499 1499 1500 1500 1500 1500 1500 1501 1500 1500 1500 1500 1500 1500 1500 1500 1500 1501 1501 1501 1501 1501 1501 1501 1501 1501 1501 1501
1496 1495 1494 1493 1493 1492 1492 1492 1492 1493 1493 1494 1494 1494 1494 1494 1495 1495 1495 1494 1495 1494 1495 1495 1495 1494 1495 1495 1495 1495 1495 1495 1495 1495 1495 1495 1495 1495 1495 1495 1495 1495 1495